Grand Island, NE

11:15 AM CST on February 12, 2016 (GMT -0600)
Central Nebraska Regional

Weather History for KGRI - January, 2011

Change the Weather History Date:

Friday, January 7, 2011

  Actual Average Record
Temperature  
Mean Temperature 33 °F 25 °F  
Max Temperature 46 °F 35 °F 63 °F (2003)
Min Temperature 19 °F 14 °F -16 °F (1968)
Degree Days  
Heating Degree Days 32 40  
Month to date heating degree days 287 280  
Since 1 July heating degree days 2657 2799  
Cooling Degree Days 0 0  
Month to date cooling degree days 0 0  
Year to date cooling degree days 0 0  
Moisture  
Dew Point 22 °F    
Average Humidity 64    
Maximum Humidity 77    
Minimum Humidity 51    
Precipitation  
Precipitation T in 0.01 in 0.25 in (1992)
Month to date precipitation T 0.11  
Year to date precipitation T 0.11  
Snow  
Snow T in 0.20 in 2.20 in (1999)
Month to date snowfall T 1.3  
Since 1 July snowfall 3.0 10.6  
Snow Depth 0.00 in    
Sea Level Pressure  
Sea Level Pressure 29.87 in    
Wind  
Wind Speed 23 mph (NNW)    
Max Wind Speed 40 mph    
Max Gust Speed 49 mph    
Visibility 10 miles    
Events      
T = Trace of Precipitation, MM = Missing Value Source: NWS Daily Summary

Daily Weather History Graph

Daily Weather History Graph

Search for Another Location

Airport or City:

Trip Planner

Search our weather history database for the weather conditions in past years. The results will help you decide how hot, cold, wet, or windy it might be!

Date:

Astronomy

Jan. 07, 2011 Rise Set
Actual Time 7:58 AM CST 5:21 PM CST
Civil Twilight 7:27 AM CST 5:51 PM CST
Nautical Twilight 6:53 AM CST 6:26 PM CST
Astronomical Twilight 6:19 AM CST 6:59 PM CST
Moon 9:40 AM CST (1/7) 8:59 PM CST (1/7)
Length of Visible Light 10h 24m
Length of Day
9h 23m
Waxing Crescent, 11% of the Moon is Illuminated
Jan 7
Waxing Crescent
Jan 12
First Quarter
Jan 19
Full
Jan 26
Last Quarter
Feb 2
New

Hourly Weather History & Observations

Time (CST) Temp. Windchill Dew Point Humidity Pressure Visibility Wind Dir Wind Speed Gust Speed Precip Events Conditions
12:53 AM 39.9 °F 31.8 °F 30.9 °F 70% 29.70 in 10.0 mi West 15.0 mph - N/A   Mostly Cloudy
1:53 AM 45.0 °F 35.8 °F 30.9 °F 58% 29.71 in 10.0 mi NW 26.5 mph 32.2 mph N/A   Overcast
2:53 AM 44.1 °F 35.4 °F 30.9 °F 60% 29.73 in 10.0 mi NW 21.9 mph 36.8 mph N/A   Overcast
3:53 AM 41.0 °F 30.5 °F 30.0 °F 65% 29.76 in 10.0 mi NW 26.5 mph 34.5 mph N/A   Overcast
4:53 AM 39.0 °F 28.5 °F 28.9 °F 67% 29.78 in 10.0 mi NW 23.0 mph 32.2 mph N/A   Mostly Cloudy
5:53 AM 37.0 °F 25.9 °F 26.1 °F 65% 29.81 in 10.0 mi NNW 23.0 mph - N/A   Partly Cloudy
6:53 AM 36.0 °F 24.4 °F 24.1 °F 62% 29.83 in 10.0 mi NNW 23.0 mph 36.8 mph N/A   Overcast
7:53 AM 35.1 °F 23.8 °F 23.0 °F 61% 29.86 in 10.0 mi NNW 20.7 mph 36.8 mph N/A   Clear
8:53 AM 35.1 °F 22.7 °F 23.0 °F 61% 29.86 in 10.0 mi NNW 25.3 mph 32.2 mph N/A   Mostly Cloudy
9:53 AM 36.0 °F 25.0 °F 23.0 °F 59% 29.87 in 10.0 mi NNW 20.7 mph 32.2 mph N/A   Overcast
10:53 AM 36.0 °F 22.6 °F 21.0 °F 55% 29.89 in 10.0 mi NNW 32.2 mph 42.6 mph N/A   Overcast
11:53 AM 34.0 °F 19.7 °F 21.0 °F 59% 29.90 in 10.0 mi NNW 33.4 mph 44.9 mph N/A   Overcast
12:53 PM 33.8 °F 20.3 °F 19.4 °F 56% 29.85 in 10.0 mi NNW 28.8 mph 40.3 mph N/A   Overcast
1:53 PM 33.1 °F 19.6 °F 19.9 °F 59% 29.89 in 10.0 mi NNW 27.6 mph 44.9 mph N/A   Overcast
2:53 PM 33.1 °F 19.6 °F 19.9 °F 59% 29.91 in 10.0 mi NNW 27.6 mph 39.1 mph N/A   Overcast
3:53 PM 33.1 °F 20.1 °F 19.0 °F 56% 29.92 in 10.0 mi NW 25.3 mph 34.5 mph N/A   Overcast
4:53 PM 33.1 °F 19.3 °F 18.0 °F 54% 29.92 in 10.0 mi NW 28.8 mph 36.8 mph N/A   Overcast
5:53 PM 32.0 °F 18.6 °F 18.0 °F 56% 29.93 in 10.0 mi NNW 25.3 mph 33.4 mph N/A   Overcast
6:53 PM 30.0 °F 17.5 °F 21.0 °F 69% 29.95 in 10.0 mi North 19.6 mph 29.9 mph 0.00 in   Overcast
7:53 PM 28.9 °F 15.4 °F 19.9 °F 69% 29.95 in 10.0 mi NNW 21.9 mph 28.8 mph N/A   Overcast
8:53 PM 26.1 °F 12.7 °F 18.0 °F 71% 29.96 in 10.0 mi NNW 18.4 mph 26.5 mph N/A   Scattered Clouds
9:53 PM 23.0 °F 10.1 °F 16.0 °F 74% 29.96 in 10.0 mi NNW 15.0 mph - N/A   Partly Cloudy
10:53 PM 21.0 °F 10.6 °F 15.1 °F 78% 29.97 in 10.0 mi NNW 9.2 mph - N/A   Clear
11:39 PM 21.2 °F 11.7 °F 15.8 °F 80% 29.91 in 10.0 mi NW 8.1 mph - N/A   Mostly Cloudy
11:53 PM 21.0 °F 9.3 °F 16.0 °F 81% 29.97 in 10.0 mi NNW 11.5 mph - N/A   Mostly Cloudy